Regional Weather Roundup
Issued by NWS

Home | Current Version | Previous Version | Graphics & Text | Print | Product List | Glossary On
Versions: 1 2 3 4 5 6 7 8 9 10 11 12 13 14 15 16 17 18 19 20 21 22 23 24 25 26 27 28 29 30 31 32 33 34 35 36 37 38 39 40 41 42 43 44 45 46 47 48 49 50
925
ASUS43 KFSD 261910
RWRSD

WEATHER ROUNDUP FOR SOUTH DAKOTA
NATIONAL WEATHER SERVICE SIOUX FALLS SD
200 PM CDT WED APR 26 2017

NOTE: "FAIR" INDICATES FEW OR NO CLOUDS BELOW 12,000 FEET WITH NO
SIGNIFICANT WEATHER AND/OR OBSTRUCTIONS TO VISIBILITY.


SDZ001>005-009-010-012>017-262000-
NORTHWEST AND NORTH CENTRAL SOUTH DAKOTA

CITY           SKY/WX    TMP DP  RH WIND       PRES   REMARKS
BUFFALO          N/A     38  25  59 VRB3      29.73F
FAITH            N/A     42  28  57 NW15      29.76F
MOBRIDGE       CLOUDY    41  25  53 N14G24    29.75F
$$

SDZ012>016-024>037-041>051-057-063-072>074-262000-
SOUTHWEST AND SOUTH CENTRAL SOUTH DAKOTA

CITY           SKY/WX    TMP DP  RH WIND       PRES   REMARKS
RAPID CTY ARPT CLOUDY    34  26  72 N10       29.79F WCI  26
PIERRE         PTSUNNY   45  27  49 N21       29.74F
CUSTER         MOSUNNY   39  33  79 VRB6      29.69F
ELLSWORTH AFB  CLOUDY    34  26  71 N8        29.79F WCI  27
PHILIP         CLOUDY    38  29  70 NW16      29.80F
PINE RIDGE     CLOUDY    40  30  67 W7        29.78F
SPEARFISH      FAIR      30  25  80 CALM      29.78F
WINNER         CLOUDY    40  28  62 NW20G28   29.77F
$$

SDZ004>011-016>023-039-040-262000-
NORTHEAST SOUTH DAKOTA

CITY           SKY/WX    TMP DP  RH WIND       PRES   REMARKS
ABERDEEN       LGT SNOW  30  26  85 N17       29.75F VSB 1   WCI  18
WATERTOWN      CLOUDY    30  25  81 N24G31    29.66S WCI  16
BROOKINGS      CLOUDY    33  27  78 NW18G25   29.66R WCI  22
SISSETON         N/A     30  27  88 N24       29.69S WCI  16
$$

SDZ017-020-022-023-036>040-048>070-262000-
SOUTHEAST SOUTH DAKOTA

CITY           SKY/WX    TMP DP  RH WIND       PRES   REMARKS
SIOUX FALLS    CLOUDY    37  30  75 NW15      29.69R
HURON          CLOUDY    36  27  69 N20       29.73S
CHAMBERLAIN    CLOUDY    40  30  68 NW17      29.76S
MITCHELL       CLOUDY    37  28  70 NW20G30   29.75R
YANKTON        CLOUDY    37  27  65 NW18      29.73S
$$

ABBREVIATIONS USED IN REMARKS
   TC - TEMPERATURE IN CELSIUS
  WCI - WIND CHILL INDEX
   HX - HEAT INDEX
  VSB - VISIBILITY





USA.gov is the U.S. government's official web portal to all federal, state and local government web resources and services.